[[{"header":{"parameterUnit":"m.s-1","parameterCategory":1,"la1":30.2991,"la2":30.254,"lo1":-89.0895,"lo2":-89.0444,"dy":0.0017,"dx":0.0017,"nx":28,"ny":28,"refTime":"2023-08-23T21:00:00:Z","depth":0,"parameterNumber":2,"parameterNumberName":"U-component_of_WINDS"},"data":[0,0,0,0,0,0,0,0,0,0,0,0,0,0,0,0,0,0,0,0,0,0,0,0,0,0,0,0,0,0,0,0,0,0,0,0,0,0,0,0,0,0,0,0,0,0,0,0,0,0,0,0,0,0,0,0,0,0,-2.1277,-2.1276,0,-2.1235,-2.1235,-2.1234,-2.1186,-2.1186,-2.1185,-2.1184,-2.114,-2.114,-2.1139,0,0,0,0,0,0,0,0,0,0,0,0,0,-2.1316,-2.1315,-2.1277,-2.1276,-2.1276,-2.1235,-2.1235,-2.1234,-2.1187,-2.1186,-2.1185,-2.1184,-2.1141,-2.114,-2.1139,0,0,0,0,0,0,0,0,0,0,0,0,0,-2.1289,-2.1315,-2.1277,-2.1247,-2.1244,-2.1235,-2.1235,-2.1234,-2.1187,-2.1186,-2.1185,-2.1184,-2.1141,-2.114,-2.1139,-2.1156,0,0,-2.1137,-2.1137,0,0,0,0,0,0,0,0,-2.1291,-2.1288,-2.1252,-2.1249,-2.1246,-2.1215,-2.1232,-2.1208,-2.1187,-2.1209,-2.1184,-2.1183,-2.1166,-2.1163,-2.1158,-2.1154,-2.1152,-2.1137,-2.1136,-2.1136,-2.1136,0,0,0,0,0,0,0,-2.1293,-2.1289,-2.126,-2.1252,-2.1248,-2.1236,-2.1231,-2.1227,-2.1194,-2.1207,-2.1203,-2.1199,-2.1164,-2.1158,-2.1156,-2.1151,-2.1137,-2.1136,-2.1136,-2.1135,-2.1161,-2.1162,0,0,0,0,0,0,-2.1299,-2.1291,-2.1262,-2.1259,-2.1266,-2.1236,-2.1231,-2.1226,-2.1194,-2.1188,-2.12,-2.1197,-2.116,-2.1157,-2.1154,-2.1172,-2.1136,-2.1135,-2.1135,-2.116,-2.1161,-2.1162,0,0,0,0,0,0,-2.13,-2.1297,-2.1263,-2.1274,-2.1269,-2.1237,-2.1232,-2.1226,-2.122,-2.1188,-2.1182,-2.12,-2.1159,-2.1155,-2.1156,-2.117,-2.1135,-2.1134,-2.1158,-2.116,-2.1162,-2.1207,0,0,0,0,0,0,-2.1301,-2.1297,-2.1303,-2.1275,-2.1269,-2.1266,-2.1233,-2.1226,-2.1219,-2.1215,-2.1187,-2.1182,-2.1158,-2.1158,-2.1156,-2.1168,-2.1134,-2.1157,-2.1159,-2.1161,-2.1205,-2.1211,-2.1216,0,0,0,0,0,-2.1303,-2.1317,-2.1303,-2.13,-2.1275,-2.1267,-2.1263,-2.1236,-2.122,-2.1226,-2.1206,-2.1182,-2.1169,-2.1158,-2.1155,-2.1168,-2.1156,-2.1158,-2.1161,-2.1202,-2.1209,-2.1216,0,0,0,0,0,0,-2.1346,-2.1313,-2.1297,-2.1303,-2.1288,-2.1259,-2.1264,-2.1245,-2.1234,-2.123,-2.1197,-2.1191,-2.1196,-2.1182,-2.117,-2.1183,-2.1159,-2.1161,-2.1192,-2.1198,-2.1204,-2.1206,-2.1133,0,0,0,0,0,-2.1357,-2.1353,-2.1324,-2.1331,-2.1325,-2.1297,-2.1292,-2.1273,-2.1256,-2.1249,-2.1229,-2.1214,-2.1206,-2.1202,-2.1193,-2.1203,-2.1197,-2.1211,-2.1216,-2.1221,-2.1223,-2.1228,-2.1234,-2.1171,-2.1171,-2.117,0,0,-2.1378,-2.1359,-2.1358,-2.134,-2.1326,-2.1323,-2.1291,-2.1289,-2.1286,-2.1249,-2.1248,-2.1234,-2.1214,-2.122,-2.1222,-2.1209,-2.124,-2.1224,-2.1228,-2.1227,-2.1231,-2.1237,-2.1243,-2.1172,-2.1172,-2.1172,0,0,-2.1414,-2.14,-2.1405,-2.1393,-2.1373,-2.1355,-2.1356,-2.133,-2.1319,-2.1319,-2.1291,-2.1288,-2.1275,-2.1263,-2.1255,-2.1291,-2.1269,-2.1289,-2.1317,-2.1323,-2.1328,-2.1332,-2.1345,-2.135,-2.1292,-2.1292,-2.1292,0,-2.1443,-2.1437,-2.141,-2.141,-2.1403,-2.1371,-2.1376,-2.1365,-2.1344,-2.134,-2.1326,-2.1311,-2.1296,-2.1299,-2.1308,-2.1303,-2.1304,-2.1291,-2.133,-2.1334,-2.1337,-2.1349,-2.1354,-2.1294,-2.1294,-2.1294,-2.1293,0,-2.1473,-2.147,-2.1476,-2.1457,-2.1451,-2.1454,-2.1428,-2.1425,-2.1408,-2.1391,-2.1392,-2.1373,-2.136,-2.136,-2.1342,-2.1361,-2.1354,-2.1336,-2.1311,-2.1346,-2.1357,-2.1361,-2.1298,-2.1297,-2.1296,-2.1295,0,0,-2.1532,-2.1501,-2.1504,-2.1496,-2.1473,-2.147,-2.1472,-2.1461,-2.1459,-2.1447,-2.1448,-2.144,-2.1423,-2.1414,-2.1396,-2.1401,-2.1431,-2.1382,-2.1381,-2.1391,-2.1451,-2.1464,-2.1469,-2.1417,-2.1418,-2.1419,-2.1452,0,-2.1564,-2.1565,-2.1543,-2.155,-2.1548,-2.1519,-2.152,-2.1507,-2.1493,-2.1488,-2.1472,-2.1466,-2.1445,-2.144,-2.1444,-2.1426,-2.1442,-2.1424,-2.1417,-2.1417,-2.1421,-2.1475,-2.1488,-2.152,-2.1456,-2.1457,-2.1457,0,-2.16,-2.1591,-2.1599,-2.1578,-2.1576,-2.1578,-2.1566,-2.1563,-2.1548,-2.1537,-2.1529,-2.1508,-2.151,-2.1488,-2.1489,-2.1477,-2.1474,-2.1465,-2.1466,-2.1463,-2.1438,-2.1472,-2.153,-2.1535,-2.1463,-2.1463,-2.1462,0,-2.1643,-2.1632,-2.1636,-2.163,-2.1605,-2.1608,-2.1598,-2.1582,-2.1577,-2.1568,-2.1565,-2.1556,-2.155,-2.1544,-2.1522,-2.1508,-2.1526,-2.1502,-2.1517,-2.1517,-2.152,-2.152,-2.1577,-2.152,-2.152,-2.152,-2.152,0,-2.1679,-2.1685,-2.1654,-2.1656,-2.1662,-2.1637,-2.1644,-2.1631,-2.1618,-2.1617,-2.1592,-2.1592,-2.1564,-2.1561,-2.1544,-2.1548,-2.1546,-2.1537,-2.1532,-2.1538,-2.1539,-2.1534,-2.1531,-2.1521,-2.1521,-2.1521,-2.1521,0,-2.1726,-2.1706,-2.1708,-2.1686,-2.1681,-2.1686,-2.1667,-2.1668,-2.1654,-2.1653,-2.1652,-2.1628,-2.1623,-2.1601,-2.1591,-2.158,-2.159,-2.1581,-2.1595,-2.1591,-2.1607,-2.1606,-2.1662,-2.1668,-2.1609,-2.1609,-2.161,0,-2.175,-2.1754,-2.1733,-2.1731,-2.1723,-2.172,-2.1716,-2.1692,-2.1689,-2.1674,-2.1677,-2.1671,-2.1664,-2.1659,-2.1641,-2.1634,-2.1624,-2.1644,-2.1622,-2.1629,-2.1623,-2.1623,-2.1623,-2.1648,-2.1649,-2.1649,-2.165,0,-2.1795,-2.1785,-2.178,-2.1772,-2.1768,-2.1761,-2.1752,-2.1752,-2.1726,-2.1723,-2.1719,-2.1714,-2.1705,-2.1699,-2.169,-2.168,-2.1661,-2.1658,-2.166,-2.1666,-2.1673,-2.1669,-2.1606,-2.1656,-2.1655,-2.1655,-2.1654,-2.1654,-2.183,-2.1833,-2.1819,-2.1815,-2.1806,-2.1799,-2.1799,-2.1785,-2.1781,-2.1772,-2.1759,-2.1757,-2.1744,-2.1729,-2.1721,-2.1719,-2.1708,-2.1713,-2.1713,-2.1714,-2.1718,-2.1676,-2.1718,-2.1718,-2.1717,-2.1717,-2.1717,0,-2.1873,-2.1864,-2.186,-2.1849,-2.1846,-2.183,-2.182,-2.1818,-2.1817,-2.1807,-2.1802,-2.1797,-2.1793,-2.1775,-2.1769,-2.1771,-2.1762,-2.177,-2.1769,-2.1767,-2.1728,-2.1726,-2.1777,-2.1777,-2.1777,-2.1777,-2.1777,-2.1777,-2.1895,-2.1899,-2.1888,-2.1888,-2.1878,-2.1876,-2.1872,-2.1865,-2.1857,-2.1854,-2.185,-2.184,-2.1827,-2.182,-2.1815,-2.181,-2.1808,-2.1819,-2.1811,-2.1775,-2.1769,-2.1764,-2.1761,-2.1819,-2.1819,-2.185,-2.185,-2.185]},{"header":{"parameterUnit":"m.s-1","parameterCategory":1,"la1":30.2991,"la2":30.254,"lo1":-89.0895,"lo2":-89.0444,"dy":0.0017,"dx":0.0017,"nx":28,"ny":28,"refTime":"2023-08-23T21:00:00:Z","depth":0,"parameterNumber":3,"parameterNumberName":"V-component_of_WINDS"},"data":[0,0,0,0,0,0,0,0,0,0,0,0,0,0,0,0,0,0,0,0,0,0,0,0,0,0,0,0,0,0,0,0,0,0,0,0,0,0,0,0,0,0,0,0,0,0,0,0,0,0,0,0,0,0,0,0,0,0,2.5867,2.5867,0,2.5885,2.5886,2.5886,2.5951,2.5953,2.5954,2.5956,2.597,2.5969,2.5968,0,0,0,0,0,0,0,0,0,0,0,0,0,2.5884,2.5884,2.5867,2.5867,2.5867,2.5885,2.5886,2.5886,2.5951,2.5953,2.5955,2.5956,2.597,2.5969,2.5967,0,0,0,0,0,0,0,0,0,0,0,0,0,2.5887,2.5883,2.5867,2.5902,2.5906,2.5885,2.5886,2.5886,2.5951,2.5953,2.5955,2.5957,2.597,2.5969,2.5967,2.5913,0,0,2.5963,2.5962,0,0,0,0,0,0,0,0,2.5887,2.5886,2.5897,2.59,2.5903,2.5919,2.5897,2.5895,2.595,2.5933,2.5956,2.5958,2.595,2.5951,2.5949,2.5913,2.5914,2.5962,2.5961,2.5961,2.596,0,0,0,0,0,0,0,2.5886,2.5886,2.5874,2.5897,2.5901,2.5916,2.5919,2.5897,2.5929,2.5935,2.594,2.5941,2.5953,2.595,2.595,2.5914,2.5962,2.5961,2.596,2.596,2.5835,2.5833,0,0,0,0,0,0,2.5882,2.5885,2.5873,2.5875,2.5901,2.5914,2.5917,2.5911,2.5929,2.5934,2.5939,2.5944,2.5952,2.5952,2.5951,2.5888,2.5961,2.5959,2.5959,2.5838,2.5835,2.5832,0,0,0,0,0,0,2.5882,2.588,2.5873,2.5881,2.5882,2.5911,2.5904,2.591,2.5908,2.5933,2.5938,2.5931,2.5954,2.5953,2.5922,2.5889,2.5959,2.5957,2.584,2.5837,2.5833,2.5761,0,0,0,0,0,0,2.5882,2.588,2.586,2.588,2.5881,2.5845,2.5902,2.5909,2.5906,2.5913,2.5927,2.5931,2.5955,2.5924,2.5921,2.5888,2.5956,2.5843,2.5839,2.5834,2.5767,2.5756,2.5746,0,0,0,0,0,2.5883,2.5838,2.5859,2.5857,2.5857,2.5843,2.5843,2.5873,2.5903,2.5883,2.5899,2.5931,2.5894,2.592,2.5917,2.5884,2.5846,2.584,2.5835,2.5771,2.5758,2.5747,0,0,0,0,0,0,2.5811,2.5841,2.5865,2.5825,2.5831,2.5854,2.5829,2.5858,2.5854,2.586,2.5896,2.5899,2.5863,2.5871,2.59,2.5832,2.5875,2.5869,2.5828,2.5815,2.5805,2.5803,2.5955,0,0,0,0,0,2.5791,2.5778,2.5805,2.5768,2.577,2.5799,2.5794,2.5817,2.5824,2.5826,2.584,2.5843,2.5833,2.5825,2.5817,2.5769,2.5773,2.5745,2.5734,2.5726,2.5719,2.5694,2.5682,2.5814,2.5815,2.5815,0,0,2.5748,2.5763,2.5753,2.5754,2.5761,2.5745,2.58,2.5782,2.577,2.5822,2.5795,2.5805,2.5812,2.5773,2.5756,2.5778,2.5684,2.5719,2.5712,2.571,2.5688,2.5675,2.5664,2.5811,2.5812,2.5812,0,0,2.5663,2.5674,2.5644,2.5651,2.5662,2.5682,2.5675,2.5694,2.5703,2.5677,2.5715,2.5702,2.5683,2.5687,2.5686,2.5604,2.5633,2.56,2.5546,2.5521,2.5511,2.5502,2.5471,2.546,2.5594,2.5594,2.5594,0,2.5608,2.5588,2.5625,2.5604,2.5603,2.5652,2.5622,2.5626,2.5633,2.563,2.5656,2.5634,2.5642,2.5604,2.5584,2.5582,2.5574,2.5598,2.551,2.5501,2.5493,2.5465,2.5453,2.559,2.559,2.5591,2.5591,0,2.552,2.5506,2.548,2.5488,2.5484,2.5458,2.549,2.5481,2.5505,2.5523,2.5494,2.5507,2.5502,2.5495,2.5517,2.546,2.5473,2.5504,2.5547,2.5476,2.5449,2.5439,2.5584,2.5585,2.5587,2.5588,0,0,2.5387,2.5417,2.5407,2.5411,2.5428,2.5417,2.5394,2.5391,2.5383,2.5386,2.5367,2.5351,2.5379,2.5378,2.5402,2.5381,2.5314,2.5414,2.5415,2.5394,2.5251,2.5227,2.5214,2.5335,2.5333,2.5331,2.525,0,2.5305,2.5268,2.5301,2.5257,2.5244,2.5292,2.5271,2.5279,2.5294,2.5285,2.5302,2.5289,2.5329,2.5329,2.531,2.5326,2.5286,2.5333,2.5315,2.5314,2.531,2.52,2.5174,2.5097,2.524,2.5238,2.5237,0,2.5204,2.5205,2.516,2.5181,2.5177,2.5158,2.5158,2.5149,2.5158,2.5171,2.5171,2.5201,2.5179,2.5223,2.5192,2.5223,2.5219,2.5225,2.5223,2.5221,2.5269,2.5193,2.5073,2.5061,2.5222,2.5223,2.5224,0,2.511,2.5101,2.5073,2.5075,2.5099,2.5084,2.5093,2.5106,2.5102,2.5102,2.51,2.5097,2.5094,2.5091,2.5118,2.5149,2.5083,2.513,2.5092,2.5091,2.5074,2.5075,2.495,2.5074,2.5074,2.5074,2.5074,0,2.5014,2.4984,2.5031,2.5013,2.4982,2.502,2.4987,2.5001,2.5011,2.4996,2.5038,2.5022,2.5061,2.505,2.5072,2.5042,2.5041,2.505,2.5055,2.5045,2.5044,2.5041,2.5046,2.5071,2.5072,2.5072,2.5073,0,2.4903,2.4933,2.4906,2.4932,2.4937,2.4912,2.4934,2.4918,2.4938,2.4919,2.4916,2.4946,2.4936,2.4964,2.4956,2.4971,2.4928,2.4944,2.4925,2.4929,2.4889,2.4892,2.4757,2.474,2.4876,2.4875,2.4873,0,2.4839,2.4817,2.4842,2.4836,2.4843,2.4832,2.483,2.4867,2.4862,2.4872,2.4855,2.4848,2.4844,2.4824,2.4844,2.4839,2.4853,2.4807,2.4852,2.4843,2.4851,2.4851,2.4849,2.4796,2.4794,2.4793,2.4792,0,2.4721,2.4738,2.4733,2.4734,2.473,2.4732,2.4736,2.4728,2.4768,2.4761,2.4751,2.4748,2.4742,2.4734,2.4734,2.4742,2.4772,2.4778,2.4768,2.4756,2.4746,2.475,2.4898,2.478,2.4781,2.4782,2.4783,2.4783,2.4631,2.4614,2.4629,2.4622,2.463,2.4634,2.4621,2.464,2.4633,2.4632,2.4654,2.464,2.465,2.4654,2.4659,2.4647,2.4668,2.4655,2.4651,2.4647,2.464,2.475,2.4647,2.4648,2.4648,2.4648,2.4649,0,2.4514,2.4527,2.4521,2.4527,2.4521,2.4554,2.4561,2.4554,2.4542,2.455,2.4546,2.4535,2.4528,2.4548,2.4544,2.4531,2.4545,2.4528,2.4529,2.453,2.4622,2.463,2.4517,2.4517,2.4517,2.4517,2.4517,2.4517,2.4453,2.4426,2.4445,2.4423,2.4435,2.4423,2.4424,2.4427,2.4434,2.4421,2.4416,2.443,2.4443,2.4441,2.4435,2.4442,2.4437,2.4415,2.4426,2.4511,2.4523,2.4536,2.4543,2.4414,2.4414,2.4335,2.4335,2.4334]}]]